Simultaneous Nadir Overpasses (SNOs) Predictions

Prediction of SNOs between FY3D and METOP-C Satellite Orbit:

Table of predicted SNOs for the next 14.0 days since TLE Epoch: 6/14/2020
Index Date (FY3D) Time (FY3D) Lat,Lon (FY3D) SZA (FY3D ) Date (METOP-C) Time (METOP-C) Lat,Lon (METOP-C) SZA (METOP-C ) Distance(km) Time Diff (sec)
1 06/25/2020 12:32:22 -73.77, 162.82 129.41 06/25/2020 12:33:28 -73.70, 165.89 129.63 95.59 66
2 06/25/2020 13:23:03 73.56, -29.38 50.37 06/25/2020 13:24:11 73.51, -27.24 50.19 67.97 68
3 06/25/2020 14:13:46 -73.52, 138.04 129.69 06/25/2020 14:14:55 -73.43, 139.92 129.87 60.24 69
4 06/25/2020 15:04:26 73.26, -54.07 50.04 06/25/2020 15:05:38 73.23, -53.19 49.95 28.35 72
5 06/25/2020 15:55:09 -73.21, 113.35 130.02 06/25/2020 15:56:22 -73.16, 113.98 130.11 21.00 73
6 06/25/2020 16:45:51 73.06, -78.99 49.81 06/25/2020 16:47:03 73.06, -78.90 49.80 2.91 72
7 06/25/2020 17:36:35 -73.06, 88.32 130.18 06/25/2020 17:37:46 -73.04, 88.38 130.22 2.87 71
8 06/25/2020 18:27:20 73.05,-104.35 49.81 06/25/2020 18:28:25 73.04,-104.29 49.78 2.56 65
9 06/25/2020 19:18:03 -73.01, 63.06 130.24 06/25/2020 19:19:08 -73.02, 62.99 130.24 2.68 65
10 06/25/2020 20:08:48 73.00,-129.61 49.76 06/25/2020 20:09:47 73.02,-129.67 49.77 3.02 59
11 06/25/2020 20:59:32 -73.00, 37.70 130.24 06/25/2020 21:00:30 -73.00, 37.61 130.25 2.91 58
12 06/25/2020 21:50:17 73.00,-154.97 49.76 06/25/2020 21:51:09 73.00,-155.06 49.75 2.69 52
13 06/25/2020 22:41:01 -73.00, 12.33 130.24 06/25/2020 22:41:51 -73.03, 12.33 130.22 3.15 50
14 06/25/2020 23:31:46 72.99, 179.66 49.76 06/25/2020 23:32:31 72.98, 179.56 49.74 3.77 45
15 06/26/2020 00:22:30 -73.00, -13.03 130.24 06/26/2020 00:23:13 -73.01, -13.05 130.24 1.36 43
16 06/26/2020 01:13:15 72.99, 154.30 49.76 06/26/2020 01:13:52 73.01, 154.28 49.77 1.91 37
17 06/26/2020 02:03:59 -73.00, -38.39 130.24 06/26/2020 02:04:35 -72.99, -38.44 130.25 1.59 36
18 06/26/2020 02:54:44 72.99, 128.93 49.76 06/26/2020 02:55:14 72.99, 128.90 49.75 1.15 30
19 06/26/2020 03:45:28 -72.99, -63.76 130.24 06/26/2020 03:45:56 -73.02, -63.71 130.23 3.15 28
20 06/26/2020 04:36:13 72.99, 103.57 49.75 06/26/2020 04:36:36 72.97, 103.51 49.73 2.81 23
21 06/26/2020 05:26:57 -72.99, -89.12 130.24 06/26/2020 05:27:18 -73.00, -89.10 130.24 1.14 21
22 06/26/2020 06:17:42 72.98, 78.20 49.75 06/26/2020 06:17:57 73.00, 78.24 49.76 1.81 15
23 06/26/2020 07:08:26 -72.99,-114.49 130.24 06/26/2020 07:08:40 -72.98,-114.48 130.26 1.20 14
24 06/26/2020 07:59:11 72.98, 52.84 49.75 06/26/2020 07:59:19 72.97, 52.85 49.75 0.69 8
25 06/26/2020 08:49:55 -72.98,-139.85 130.24 06/26/2020 08:50:02 -72.95,-139.87 130.27 3.22 7
26 06/26/2020 09:40:40 72.98, 27.48 49.75 06/26/2020 09:40:41 72.95, 27.47 49.73 2.57 1
27 06/26/2020 10:31:24 -72.98,-165.21 130.25 06/26/2020 10:31:23 -72.98,-165.14 130.24 2.36 1
28 06/26/2020 11:22:09 72.97, 2.11 49.75 06/26/2020 11:22:02 72.98, 2.19 49.76 2.82 7
29 06/26/2020 12:12:53 -72.98, 169.42 130.25 06/26/2020 12:12:45 -72.96, 169.47 130.26 2.27 8
30 06/26/2020 13:03:38 72.97, -23.25 49.75 06/26/2020 13:03:24 72.96, -23.19 49.74 2.18 14
31 06/26/2020 13:54:21 -72.92, 144.16 130.30 06/26/2020 13:54:07 -72.94, 144.09 130.28 3.23 14
32 06/26/2020 14:45:07 72.97, -48.62 49.75 06/26/2020 14:44:46 72.94, -48.58 49.73 3.24 21
33 06/26/2020 15:35:50 -72.92, 118.80 130.30 06/26/2020 15:35:29 -72.92, 118.70 130.29 3.16 21
34 06/26/2020 16:26:35 72.91, -73.87 49.70 06/26/2020 16:26:08 72.92, -73.96 49.71 2.92 27
35 06/26/2020 17:17:19 -72.92, 93.44 130.30 06/26/2020 17:16:50 -72.95, 93.43 130.26 3.68 29
36 06/26/2020 18:08:03 72.91, -99.24 49.70 06/26/2020 18:07:29 72.90, -99.35 49.70 3.75 34
37 06/26/2020 18:58:47 -72.91, 68.07 130.30 06/26/2020 18:58:11 -72.93, 68.04 130.28 1.94 36
38 06/26/2020 19:49:32 72.91,-124.60 49.70 06/26/2020 19:48:50 72.93,-124.62 49.73 2.35 42
39 06/26/2020 20:40:16 -72.91, 42.71 130.30 06/26/2020 20:39:33 -72.91, 42.66 130.29 1.67 43
40 06/26/2020 21:31:01 72.91,-149.97 49.70 06/26/2020 21:30:12 72.91,-150.01 49.71 1.31 49
41 06/26/2020 22:21:45 -72.91, 17.34 130.30 06/26/2020 22:20:55 -72.89, 17.27 130.31 3.26 50
42 06/26/2020 23:12:30 72.90,-175.33 49.70 06/26/2020 23:11:34 72.89,-175.39 49.70 2.62 56
43 06/27/2020 00:03:14 -72.91, -8.02 130.30 06/27/2020 00:02:16 -72.92, -8.00 130.28 1.41 58
44 06/27/2020 00:53:59 72.90, 159.30 49.70 06/27/2020 00:52:55 72.92, 159.33 49.72 2.08 64
45 06/27/2020 01:44:43 -72.90, -33.39 130.30 06/27/2020 01:43:38 -72.90, -33.39 130.30 0.71 65
46 06/27/2020 02:35:28 72.90, 133.94 49.70 06/27/2020 02:34:17 72.90, 133.95 49.71 0.32 71
47 06/27/2020 03:26:12 -72.90, -58.75 130.30 06/27/2020 03:25:00 -72.87, -58.77 130.31 2.80 72
48 06/27/2020 04:16:54 72.74, 108.89 49.53 06/27/2020 04:15:41 72.77, 108.35 49.60 18.20 73
49 06/27/2020 05:07:38 -72.74, -83.80 130.47 06/27/2020 05:06:24 -72.75, -84.37 130.42 18.86 74
50 06/27/2020 05:58:18 72.48, 84.05 49.26 06/27/2020 05:57:08 72.50, 82.45 49.36 53.55 70
51 06/27/2020 06:49:01 -72.44,-108.54 130.80 06/27/2020 06:47:51 -72.48,-110.27 130.65 58.03 70
52 06/27/2020 07:39:42 72.23, 59.19 48.98 06/27/2020 07:38:35 72.22, 56.56 49.13 89.21 67
53 06/27/2020 08:30:25 -72.18,-133.40 131.07 06/27/2020 08:29:19 -72.15,-136.25 130.94 96.96 66




NCC Satellite Simultaneous Nadir Overpasses (SNOs) Prediction Service
